Hourly Data Report for October 04, 2017

VICTORIA UNIVERSITY CS
BRITISH COLUMBIA

48°27'25.200" N
123°18'16.600" W
60.10 m
1018598
71783
WYJ

Download Data

Hourly Data (October 2017)
Hourly Data Report for October 4, 2017
TIME
LST
Temp Definition
°C
Dew Point Definition
°C
Rel Hum Definition
%
Precip. Amount Definition
mm

Wind Dir Definition
10's deg

Wind Spd Definition
km/h
Visibility Definition
km
Stn Press Definition
kPa
Hmdx Definition


Wind Chill Definition


Weather Definition


00:00 6.9 4.1 82 0.0 31 6   101.57     LegendNANA
01:00 7.2 3.3 76 0.0 31 1   101.59     LegendNANA
02:00 9.1 3.0 66 0.0 33 6   101.55     LegendNANA
03:00 10.6 2.0 55 0.0 31 5   101.51     LegendNANA
04:00 11.0 2.3 55 0.0 34 6   101.48     LegendNANA
05:00 11.0 1.7 53 0.0 36 9   101.46     LegendNANA
06:00 9.7 1.5 57 0.0 36 4   101.46     LegendNANA
07:00 10.5 2.3 57 0.0 33 8   101.48     LegendNANA
08:00 12.3 4.6 59 0.0 36 11   101.49     LegendNANA
09:00 13.8 6.1 60 0.0 36 11   101.48     LegendNANA
10:00 14.9 6.3 56 0.0 36 13   101.52     LegendNANA
11:00 16.2 3.9 44 0.0 35 8   101.47     LegendNANA
12:00 16.5 2.6 39 0.0 1 7   101.46     LegendNANA
13:00 17.9 2.5 36 0.0 36 8   101.42     LegendNANA
14:00 19.7 2.2 31 0.0 32 5   101.39     LegendNANA
15:00 17.5 5.7 46 0.0 9 4   101.39     LegendNANA
16:00 15.9 5.2 49 0.0 10 3   101.38     LegendNANA
17:00 15.7 5.1 49 0.0 19 4   101.36     LegendNANA
18:00 12.0 4.7 61 0.0 26 2   101.35     LegendNANA
19:00 9.7 4.4 69 0.0 25 2   101.35     LegendNANA
20:00 8.8 3.2 68 0.0 26 1   101.37     LegendNANA
21:00 7.6 2.9 72 0.0   0   101.38     LegendNANA
22:00 7.5 3.2 74 0.0 19 1   101.40     LegendNANA
23:00 6.6 3.4 80 0.0 26 1   101.41     LegendNANA

Notes on Data Quality.

Legend

  • E = Estimated
  • M = Missing
  • NA = Not Available*
  • [empty] = Indicates an unobserved value
Date modified: